Location: Unspecified
(58.9933°N, 5.6375°E)
Time: 04:42:19
(UTC+02:00)

Okean 3 - Visible Passes

Search period start: 26 June 2016 00:00
Search period end: 06 July 2016 00:00
Orbit: 578 x 603 km, 82.5° (Epoch: 24 June)

Date Brightness Start Highest point End Pass type
(mag) Time Alt. Az. Time Alt. Az. Time Alt. Az.
26 Jun 4.5 01:28:13 10° N 01:32:20 42° ENE 01:36:27 10° SE visible
27 Jun 4.0 01:36:41 10° N 01:40:56 56° ENE 01:45:10 10° SSE visible
28 Jun 3.7 01:45:10 10° N 01:49:30 75° ENE 01:53:49 10° SSE visible
29 Jun 5.6 00:16:54 10° N 00:20:09 20° ENE 00:23:24 10° ESE visible
29 Jun 3.5 01:53:41 10° NNW 01:58:01 82° WSW 02:02:21 10° S visible
30 Jun 5.2 00:25:14 10° N 00:28:51 25° ENE 00:32:29 10° ESE visible
30 Jun 3.7 02:02:14 10° NNW 02:06:30 61° W 02:10:46 10° S visible
01 Jul 4.9 00:33:36 10° N 00:37:31 32° ENE 00:41:26 10° SE visible
01 Jul 4.1 02:10:50 10° NNW 02:14:58 45° W 02:19:05 10° SSW visible
02 Jul 4.4 00:42:01 10° N 00:46:09 42° ENE 00:50:17 10° SE visible
02 Jul 4.6 02:19:28 10° NNW 02:23:23 34° W 02:27:17 10° SSW visible
03 Jul 4.0 00:50:28 10° N 00:54:45 56° ENE 00:59:00 10° SSE visible
03 Jul 5.0 02:28:11 10° NNW 02:31:46 26° W 02:35:20 10° SW visible
04 Jul 3.6 00:58:57 10° NNW 01:03:18 75° ENE 01:07:38 10° SSE visible
04 Jul 5.4 02:36:59 10° NW 02:40:07 20° W 02:43:15 10° SW visible
05 Jul 3.6 01:07:28 10° NNW 01:11:50 82° WSW 01:16:05 10° S visible
05 Jul 5.7 02:45:57 10° NW 02:48:26 15° W 02:50:55 10° WSW visible
